P/2022 M1 ( LONEOS-PanSTARRS )

Japanese version
Home page
Updated on December 11, 2022

---------------------------------------------------------------------

* Profile

Discovery Date June 29, 2022
Magnitude 21.1 mag
Discoverer Pan-STARRS 2 telescope (Haleakala)

* Pictures

* Orbital Elements

Epoch 2022 Aug. 9.0 TT = JDT 2459800.5                                          
T 2022 Aug. 2.37972 TT                                  Rudenko                 
q   2.0614341            (2000.0)            P               Q                  
n   0.09115717     Peri.    4.46854     +0.84200902     +0.53439720             
a   4.8896244      Node   322.92183     -0.49866228     +0.71885398             
e   0.5784064      Incl.    7.02718     -0.20580754     +0.44459935             
P  10.8                                                                         
>From 160 observations 2022 May 31-Nov. 8, mean residual 0".4.                   

* Magnitudes Graph

        m1 = 1.0 + 5 log d + 55 log r(t - 40)

---------------------------------------------------------------------

The orbital elements are published on M.P.E.C. 2022-V125.
The magnitudes graphs are made with Comet for Windows.

---------------------------------------------------------------------

Copyright(C) Seiichi Yoshida (comet@aerith.net). All rights reserved.